[Iaude] MPEC E85: 2024 EB2 [a=2.28,e=0.52,i=15.3,H=24.4]

mpec at cfa.harvard.edu mpec at cfa.harvard.edu
Wed Mar 6 10:27:51 EST 2024


M.P.E.C. 2024-E85                                 Issued 2024 March 6, 15:26 UT

     The Minor Planet Electronic Circulars contain information on unusual
         minor planets, routine data on comets and natural satellites,
         and occasional editorial announcements.  They are published
    on behalf of Division F of the International Astronomical Union by the
          Minor Planet Center, Smithsonian Astrophysical Observatory,
                          Cambridge, MA 02138, U.S.A.
			  
             Prepared using the Tamkin Foundation Computer Network

                              MPC at CFA.HARVARD.EDU
            URL https://www.minorplanetcenter.net/    ISSN 1523-6714

                                    2024 EB2                                    


Observations:
     K24E02B  C2024 03 01.38974410 38 56.141-05 09 25.40         21.18GVEE085F51
     K24E02B  C2024 03 01.40211010 38 59.775-05 08 04.73         21.01GVEE085F51
     K24E02B  C2024 03 01.42689310 39 07.044-05 05 22.11         20.91GVEE085F51
     K24E02B*1C2024 03 05.28662110 58 13.595+01 34 54.26         21.20GVEE085G96
     K24E02B 1C2024 03 05.29179510 58 14.966+01 35 24.61         20.68GVEE085G96
     K24E02B 1C2024 03 05.29696710 58 16.295+01 35 54.78         20.87GVEE085G96
     K24E02B 1C2024 03 05.30213810 58 17.623+01 36 24.88               VEE085G96
     K24E02B  C2024 03 05.33623610 58 26.153+01 39 42.06         20.8 GVEE085H01
     K24E02B  C2024 03 05.34006310 58 27.136+01 40 04.38         20.7 GVEE085H01
     K24E02B  C2024 03 05.35194810 58 30.186+01 41 13.34         20.9 GVEE085H01
     K24E02B  C2024 03 05.35755910 58 31.623+01 41 45.81         21.3 GVEE085H01
     K24E02B KC2024 03 05.40384510 58 43.691+01 46 14.99         21.07GVEE085I52
     K24E02B KC2024 03 05.40561910 58 44.144+01 46 25.46         20.60GVEE085I52
     K24E02B KC2024 03 05.40739310 58 44.630+01 46 35.65         20.70GVEE085I52
     K24E02B KC2024 03 05.40916510 58 45.059+01 46 46.31         20.71GVEE085I52
     K24E02B  C2024 03 06.25862311 02 37.128+03 07 21.68         20.8 GVEE085H01
     K24E02B KC2024 03 06.26129711 02 37.74 +03 07 36.1          20.5 GXEE085858
     K24E02B  C2024 03 06.26289711 02 38.175+03 07 45.67         20.9 GVEE085H01
     K24E02B KC2024 03 06.27061311 02 40.01 +03 08 27.7          20.7 GXEE085858
     K24E02B |C2024 03 06.27175011 02 38.440+03 09 32.90         20.6 GVEE085807
     K24E02B |C2024 03 06.27629011 02 39.570+03 09 58.20         20.8 GVEE085807
     K24E02B  C2024 03 06.27923511 02 42.196+03 09 16.75         20.8 GVEE085H01
     K24E02B KC2024 03 06.27986411 02 42.30 +03 09 19.7          20.5 GXEE085858
     K24E02B |C2024 03 06.28018011 02 40.510+03 10 19.80         20.8 GVEE085807
     K24E02B  C2024 03 06.28769911 02 44.323+03 10 04.66         20.5 GVEE085H01

Observer details:
807 Cerro Tololo Observatory, La Serena.  Observers T. Linder, R. Holmes.
    0.61-m f/6.8 Ritchey-Chretien + CCD.
858 Tebbutt Observatory, Edgewood.  Observer F. B. Zoltowski.  0.51-m f/8.1
    Schmidt-Cassegrain + CCD.
F51 Pan-STARRS 1, Haleakala.  Observers J. Herman, T. Lowe, P. Minguez, A.
    Schultz, I. Smith.  Measurers K. Chambers, T. de Boer, J. Fairlamb, H.
    Gao, M. Huber, C.-C. Lin, E. Magnier, Y. Ramanjooloo, R. Wainscoat, R.
    Weryk.  1.8-m Ritchey-Chretien + CCD.
G96 Mt. Lemmon Survey.  Observer G. J. Leonard.  Measurers T. Beuden, V. F.
    Carvajal, D. Fay, J. B. Fazekas, D. C. Fuls, A. R. Gibbs, A. D. Grauer, H.
    Groeller, J. K. Hogan, R. A. Kowalski, S. M. Larson, G. J. Leonard, D.
    Rankin, R. L. Seaman, F. C. Shelly, K. W. Wierzchos.  1.5-m reflector +
    10K CCD.
H01 Magdalena Ridge Observatory, Socorro.  Observers W. H. Ryan, E. V. Ryan.
    Measurer W. H. Ryan.  2.4-m f/8.9 Ritchey-Chretien + CCD.
I52 Steward Observatory, Mt. Lemmon Station.  Observer J. K. Hogan.  Measurers
    T. Beuden, V. F. Carvajal, D. Fay, J. B. Fazekas, D. C. Fuls, A. R. Gibbs,
    A. D. Grauer, H. Groeller, J. K. Hogan, R. A. Kowalski, S. M. Larson, G.
    J. Leonard, D. Rankin, R. L. Seaman, F. C. Shelly, K. W. Wierzchos.  1.0-m
    prime focus + CCD.

Orbital elements:
2024 EB2                                                 Earth MOID = 0.1389 AU
Epoch 2024 Mar. 31.0 TT = JDT 2460400.5                 MPC                     
M  16.59386              (2000.0)            P               Q                  
n   0.28667319     Peri.  324.24676     -0.66658586     -0.74313394             
a   2.2779525      Node   167.20574     +0.73046008     -0.66682221             
e   0.5243081      Incl.   15.30139     +0.14863163     -0.05567836             
P   3.44           H   24.45          G   0.15           U   8                  
Residuals in seconds of arc
240301 F51  0.4+  0.5+    240305 H01  0.0   0.2+    240306 858  0.3-  0.2-
240301 F51  0.1+  0.1-    240305 H01  0.0   0.1+    240306 807  0.1+  0.0
240301 F51  0.5-  0.4-    240305 I52  0.1-  0.3-    240306 807  0.2+  0.0
240305 G96  0.6-  0.4-    240305 I52  0.1-  0.1-    240306 H01  0.3-  0.3-
240305 G96  0.1+  0.2-    240305 I52  0.3+  0.2-    240306 858  0.2-  0.0
240305 G96  0.1+  0.1-    240305 I52  0.2-  0.2+    240306 807  0.1-  0.1-
240305 G96  0.2+  0.1-    240306 H01  0.0   0.1-    240306 H01  0.3+  0.3+
240305 H01  0.0   0.1+    240306 858  0.2+  0.2+
240305 H01  0.0   0.2+    240306 H01  0.1-  0.0

Ephemeris:
2024 EB2                 a,e,i = 2.28, 0.52, 15                  q = 1.0836
Date    TT    R. A. (2000) Decl.     Delta      r    Elong.  Phase     V
2024 02 05    07 56 13.0 -41 44 59   0.1773  1.0841   119.5    52.3    22.8
...
2024 02 20    09 35 15.8 -24 34 08   0.1407  1.1044   143.1    32.5    21.8
...
2024 02 28    10 25 43.5 -09 37 13   0.1425  1.1264   161.6    16.1    21.3
...
2024 03 05    10 56 53.4 +01 07 21   0.1563  1.1476   174.8     4.5    21.1
2024 03 06    11 01 27.1 +02 43 31   0.1596  1.1515   176.7     2.8    21.1
2024 03 07    11 05 50.1 +04 15 44   0.1631  1.1555   178.4     1.4    21.0
...
2024 03 13    11 28 36.9 +12 01 58   0.1893  1.1813   170.9     7.7    21.7
...
2024 03 21    11 51 05.6 +18 49 48   0.2349  1.2203   160.8    15.6    22.6
...
2024 04 05    12 17 32.2 +24 15 06   0.3434  1.3050   148.2    23.8    23.8

A. U. Tomatic                (C) Copyright 2024 MPC           M.P.E.C. 2024-E85





More information about the Iaude mailing list